Погода в Инарках

Россия / Республика Ингушетия     43°28′10″N   44°32′36″E
В апреле 2022 года жителям России запретили посещать сайт meteo.paraplan.net по решению Генеральной прокуратуры. Аудитория сайта уменьшилась в 10 раз. Владельцы сайта не видят смысла в поддержке погодного сервера в таких условиях. Сайт будет закрыт в октябре.
темп.,
°C
ветер,
м/с
пор.,
м/с
влажн.,
%
обл.,
%
осадки,
мм/ч
давл.,
гПа
погр.,
м
6 октября, чт
чт600:00+15ссз2373100 0.0 1025327
03:00+14с1274100 0.0 1025307
06:00+14ссв1280100 0.1 1026269
09:00+14всв2379100 0.1 1025383
12:00+14св2277100 0.0 1026503
15:00+14всв1274100 0.0 1025569
18:00+14вюв1276100 0.0 1026200
21:00+13св117963 0.0 102640
7 октября, пт
пт700:00+12ююв118498 0.0 102622
03:00+13ссз1181100 0.0 102654
06:00+13всв1181100 0.0 102642
09:00+14в2374100 0.0 1026431
12:00+18всв346055 0.0 10251017
15:00+18в4456100 0.0 10231269
18:00+17в355990 0.0 1023280
21:00+16всв475541 0.0 1023357
8 октября, сб
сб800:00+13вюв36691 0.0 1023136
03:00+12вюв37893 0.0 1023183
06:00+11вюв259616 0.0 1022123
09:00+14в468297 0.0 1022557
12:00+15в4877100 0.0 1021862
15:00+16в5880100 0.1 1019762
18:00+16в597782 0.0 1019613
21:00+14в588391 0.0 1019471
9 октября, вс
вс900:00+13в368843 0.0 1018315
03:00+13в2389100 0.0 1016187
06:00+13св1191100 0.0 1015149
09:00+15ссв1180100 0.0 1014498
12:00+18сз2164100 0.0 1013720
15:00+21ссв1154100 0.0 1010503
18:00+18з3365100 0.0 101165
21:00+16зюз3572100 0.0 1013133
10 октября, пн
пн1000:00+15юз34795 0.0 101372
03:00+14ююз228385 0.0 101328
06:00+14юз2284100 0.0 101415
09:00+19зсз356079 0.0 1015684
12:00+17юз3467100 0.0 1015264
15:00+20сз235286 0.0 1015589
18:00+17юз116216 0.0 101611
21:00+17ссз3668100 0.1 1017407